EW9523 Weather Reports


Display with metric or nautical units.
time (UTC)temp
F
wind
direction
speed
MPH
gust
MPH
rain 1hr
in
rain 24hr
in
rain mn
in
humidity
%
barometer
mb
20260508061640 54 120 0.0 1.0 0.00 0.00 0.00 91 1016.1
20260508060641 55 133 0.0 2.0 0.00 0.00 0.00 91 1016.0
20260508055626 55 138 0.0 0.0 0.00 0.00 0.00 90 1016.1
20260508054624 56 138 0.0 0.0 0.00 0.00 0.00 90 1016.0
20260508053621 56 126 0.0 0.0 0.00 0.00 0.00 89 1016.0
20260508052618 57 126 0.0 3.0 0.00 0.00 0.00 89 1015.9
20260508051557 57 154 0.0 1.0 0.00 0.00 0.00 89 1015.8
20260508050556 58 132 0.0 1.0 0.00 0.00 0.00 88 1015.8
20260508045552 58 132 0.0 2.0 0.00 0.00 0.00 87 1015.7
20260508045023 59 115 0.0 3.0 0.00 0.00 0.00 87 1015.8
20260508043545 60 101 0.0 2.0 0.00 0.00 0.00 85 1015.8
20260508042544 60 113 0.0 3.0 0.00 0.00 0.00 85 1015.7
20260508041512 61 123 0.0 1.0 0.00 0.00 0.00 83 1015.5
20260508040505 62 127 1.0 3.0 0.00 0.00 0.00 82 1015.4
20260508035955 63 161 0.0 2.0 0.00 0.00 0.00 81 1015.3
20260508034458 64 149 0.0 2.0 0.00 0.00 0.00 80 1015.1
20260508033458 65 107 0.0 2.0 0.00 0.00 0.00 78 1015.1
20260508032940 66 193 1.0 4.0 0.00 0.00 0.00 76 1015.0
20260508031444 67 219 1.0 3.0 0.00 0.00 0.00 75 1014.9
20260508030918 68 191 1.0 6.0 0.00 0.00 0.00 74 1014.7
20260508025918 69 152 2.0 5.0 0.00 0.00 0.00 72 1014.6
20260508024441 70 132 2.0 7.0 0.00 0.00 0.00 71 1014.4
20260508023440 71 154 2.0 6.0 0.00 0.00 0.00 70 1014.4
20260508022907 71 235 2.0 9.0 0.00 0.00 0.00 70 1014.4
20260508021431 72 160 2.0 7.0 0.00 0.00 0.00 70 1014.4
20260508020427 72 146 3.0 7.0 0.00 0.00 0.00 69 1014.5
20260508015908 73 140 4.0 11.0 0.00 0.00 0.00 68 1014.4
20260508014424 74 134 4.0 12.0 0.00 0.00 0.00 67 1014.4
20260508013906 75 150 3.0 10.0 0.00 0.00 0.00 66 1014.5
20260508012420 75 144 3.0 9.0 0.00 0.00 0.00 67 1014.5
20260508011421 76 113 4.0 11.0 0.00 0.00 0.00 67 1014.4
20260508010418 76 90 4.0 11.0 0.00 0.00 0.00 66 1014.5
20260508005418 77 169 3.0 10.0 0.00 0.00 0.00 66 1014.6
20260508004418 77 92 3.0 7.0 0.00 0.00 0.00 66 1014.7
20260508003417 77 184 4.0 10.0 0.00 0.00 0.00 65 1014.6
20260508002417 78 104 3.0 10.0 0.00 0.00 0.00 64 1014.6
20260508001856 78 162 3.0 10.0 0.00 0.00 0.00 64 1014.5
20260508000404 78 167 3.0 10.0 0.00 0.00 0.00 63 1014.4
20260507235401 78 135 3.0 10.0 0.00 0.00 0.00 65 1014.5
20260507234845 78 184 4.0 12.0 0.00 0.00 0.00 65 1014.5
20260507233400 78 126 3.0 10.0 0.00 0.00 0.00 64 1014.5
20260507232400 78 161 3.0 11.0 0.00 0.00 0.00 63 1014.6
20260507231838 78 111 5.0 11.0 0.00 0.00 0.00 64 1014.6
20260507230355 78 107 4.0 12.0 0.00 0.00 0.00 65 1014.7
20260507225355 78 155 4.0 12.0 0.00 0.00 0.00 65 1014.8
20260507225320 78 173 3.0 10.0 0.00 0.00 0.00 65 1015.0
20260507223354 78 132 2.0 9.0 0.00 0.00 0.00 63 1015.1
20260507222353 78 115 3.0 10.0 0.00 0.00 0.00 63 1015.2
20260507221353 78 177 3.0 8.0 0.00 0.00 0.00 62 1015.3
20260507220824 78 152 2.0 11.0 0.00 0.00 0.00 64 1015.5
20260507215344 77 171 2.0 7.0 0.00 0.00 0.00 66 1015.7
20260507214342 76 73 3.0 9.0 0.00 0.00 0.00 67 1015.8
20260507213341 76 136 4.0 9.0 0.00 0.00 0.00 67 1016.0
20260507213308 76 101 4.0 9.0 0.00 0.00 0.00 68 1016.0
20260507211337 75 133 3.0 10.0 0.00 0.00 0.00 68 1016.1
20260507211253 75 123 3.0 9.0 0.00 0.00 0.00 69 1016.2
20260507205809 74 147 3.0 10.0 0.00 0.00 0.00 69 1016.3
20260507204333 73 181 3.0 11.0 0.00 0.00 0.00 71 1016.5
20260507203333 73 153 3.0 9.0 0.00 0.00 0.00 70 1016.5
20260507202333 72 187 4.0 11.0 0.00 0.00 0.00 71 1016.7
20260507201333 72 163 3.0 7.0 0.00 0.00 0.00 71 1016.7
20260507200334 71 173 4.0 10.0 0.00 0.00 0.00 72 1016.7
20260507200307 70 171 3.0 7.0 0.00 0.00 0.00 74 1016.8
20260507194326 70 169 2.0 6.0 0.00 0.00 0.00 73 1017.0
20260507193323 69 219 3.0 10.0 0.00 0.00 0.00 73 1017.0
20260507192805 68 109 2.0 5.0 0.00 0.00 0.00 76 1017.1
20260507191321 67 159 3.0 7.0 0.00 0.00 0.00 76 1017.1
20260507190319 67 181 2.0 6.0 0.00 0.00 0.00 77 1017.2
20260507185319 66 178 3.0 6.0 0.00 0.00 0.00 79 1017.3
20260507184318 65 113 3.0 10.0 0.00 0.00 0.00 80 1017.4
20260507183317 64 259 2.0 7.0 0.00 0.00 0.00 81 1017.7
20260507182312 63 130 3.0 7.0 0.00 0.00 0.00 82 1017.6
20260507181309 62 77 2.0 7.0 0.00 0.00 0.00 86 1017.7
20260507181245 61 159 3.0 8.0 0.00 0.00 0.00 84 1017.9
20260507175309 60 203 2.0 6.0 0.00 0.00 0.00 86 1017.8
20260507174739 59 165 2.0 7.0 0.00 0.00 0.00 88 1017.7
20260507173307 58 217 1.0 4.0 0.00 0.00 0.00 89 1017.7
20260507172308 57 121 2.0 5.0 0.00 0.00 0.00 91 1017.8
20260507171304 56 254 1.0 4.0 0.00 0.00 0.00 91 1017.8
20260507170304 56 169 1.0 4.0 0.00 0.00 0.00 91 1017.9
20260507165306 55 240 2.0 5.0 0.00 0.00 0.00 92 1017.9
20260507164252 55 265 1.0 3.0 0.00 0.00 0.00 92 1017.9
20260507163244 55 255 1.0 2.0 0.00 0.00 0.00 93 1017.9
20260507162243 54 333 1.0 3.0 0.00 0.00 0.00 94 1018.0
20260507161238 54 308 1.0 4.0 0.00 0.00 0.00 94 1018.0
20260507160237 53 259 0.0 2.0 0.00 0.00 0.00 95 1018.0
20260507155238 53 305 1.0 3.0 0.00 0.00 0.00 95 1018.0
20260507154238 53 351 1.0 4.0 0.00 0.00 0.00 95 1018.0
20260507153239 53 248 1.0 3.0 0.00 0.00 0.00 95 1017.9
20260507152236 53 342 1.0 4.0 0.00 0.00 0.00 95 1017.9
20260507151647 53 5 0.0 2.0 0.00 0.00 0.00 96 1018.0
20260507150212 53 59 1.0 3.0 0.00 0.00 0.00 95 1017.9
20260507145211 53 19 0.0 0.0 0.00 0.00 0.00 96 1017.9
20260507144210 53 56 0.0 2.0 0.00 0.00 0.00 96 1017.9
20260507143154 53 67 0.0 2.0 0.00 0.00 0.00 95 1017.8
20260507142034 53 321 0.0 2.0 0.00 0.00 0.00 96 1017.7
20260507141024 53 5 1.0 3.0 0.00 0.00 0.00 96 1017.5
20260507140502 53 37 0.0 2.0 0.00 0.00 0.00 96 1017.5
20260507135023 53 278 1.0 2.0 0.00 0.00 0.00 96 1017.3
20260507134020 52 242 0.0 2.0 0.00 0.00 0.00 96 1017.2
20260507133020 52 275 1.0 3.0 0.00 0.00 0.00 95 1017.2
20260507132008 53 317 1.0 3.0 0.00 0.00 0.00 95 1017.1
20260507131006 52 250 1.0 3.0 0.00 0.00 0.00 95 1017.0
20260507125944 52 324 1.0 2.0 0.00 0.00 0.00 95 1017.0
20260507124939 52 306 0.0 2.0 0.00 0.00 0.00 95 1017.0
20260507123930 53 262 0.0 0.0 0.00 0.00 0.00 95 1017.0
20260507122908 52 262 1.0 2.0 0.00 0.00 0.00 95 1017.0
20260507121856 52 282 1.0 3.0 0.00 0.00 0.00 95 1017.0
20260507121333 53 251 0.0 3.0 0.00 0.00 0.00 95 1017.0
20260507115852 53 259 0.0 2.0 0.00 0.00 0.00 95 1017.0
20260507114838 53 250 0.0 2.0 0.00 0.00 0.00 95 1017.2
20260507114316 53 277 0.0 2.0 0.00 0.00 0.00 95 1017.1
20260507112832 53 150 0.0 0.0 0.00 0.00 0.00 95 1017.1
20260507111806 53 150 0.0 1.0 0.00 0.00 0.00 95 1017.1
20260507110804 53 189 0.0 2.0 0.00 0.00 0.00 95 1017.1
20260507110243 53 189 0.0 1.0 0.00 0.00 0.00 94 1017.2
20260507104758 53 189 1.0 2.0 0.00 0.00 0.00 94 1017.2
20260507104233 53 229 1.0 2.0 0.00 0.00 0.00 94 1017.3
20260507102754 53 217 0.0 3.0 0.00 0.00 0.00 94 1017.4
20260507102222 53 129 0.0 2.0 0.00 0.00 0.00 95 1017.3
20260507101229 53 175 0.0 1.0 0.00 0.00 0.00 94 1017.3
20260507095733 53 182 0.0 1.0 0.00 0.00 0.00 94 1017.2
20260507095215 53 213 1.0 4.0 0.00 0.00 0.00 94 1017.4
20260507093732 53 188 0.0 4.0 0.00 0.00 0.00 94 1017.4
20260507092715 53 195 0.0 4.0 0.00 0.00 0.00 94 1017.4
20260507091715 53 68 0.0 2.0 0.00 0.00 0.00 94 1017.4
20260507090709 53 176 1.0 4.0 0.00 0.00 0.00 94 1017.5
20260507085659 53 105 1.0 4.0 0.00 0.00 0.00 94 1017.5
20260507084659 53 121 0.0 2.0 0.00 0.00 0.00 94 1017.5
20260507083655 53 129 0.0 0.0 0.00 0.00 0.00 94 1017.5
20260507082653 53 129 0.0 0.0 0.00 0.00 0.00 93 1017.5
20260507081653 53 129 0.0 1.0 0.00 0.00 0.00 93 1017.4
20260507080627 53 115 0.0 1.0 0.00 0.00 0.00 92 1017.5
20260507075621 53 98 0.0 2.0 0.00 0.00 0.00 92 1017.4
20260507075552 53 134 0.0 2.0 0.00 0.00 0.00 92 1017.4
20260507073619 54 167 1.0 4.0 0.00 0.00 0.00 92 1017.3
20260507072613 54 89 1.0 3.0 0.00 0.00 0.00 91 1017.2
20260507071612 55 140 0.0 2.0 0.00 0.00 0.00 91 1017.2
20260507070601 55 130 0.0 4.0 0.00 0.00 0.00 91 1017.1
20260507065550 55 134 1.0 3.0 0.00 0.00 0.00 90 1017.0
20260507064540 56 163 0.0 2.0 0.00 0.00 0.00 90 1017.0
20260507063517 56 167 0.0 2.0 0.00 0.00 0.00 89 1016.9
20260507062515 56 164 0.0 3.0 0.00 0.00 0.00 89 1016.8